TITAN 3C TRANSTAGE DEB, 1915

Orbit data source: Space-Track

TITAN 3C TRANSTAGE DEB, 1915 is space debris in LEO originally from a launch on Fri, 15 Oct 1965 UTC launched from the Air Force Eastern Test Range (AFETR). Debris objects in space refer to the collection of defunct objects orbiting the Earth. Examples of debris include non-operational satellites, rocket bodies, and fragments generated from explosions, collisions, or faulty payload assembly.

Loading next visibility...
Identifier
1915, 1965-082FZ
Orbit
LEO
Country
Flag of USUS
Related business
Manufacturer
Unknown
Mission
Spacecraft
Bus & Motor
Unknown
Mass
Unknown
Launch date (UTC)
1965-10-15 (61 years ago)
Launch vehicle
Unknown
Launch site
Air Force Eastern Test Range (AFETR)
Object type
Payload
Rocket body
Debris
Shape & HBR
Unknown shape, 0.1 m
Radar Cross Section
Small (<0.1 m²)

Expand to show TLE details & history
Last TLE update: 9 hours ago

TLE from 9 hours ago
0 TITAN 3C TRANSTAGE DEB
1  1915U 65082FZ  26112.12028522  .00000371  00000-0  69246-4 0  9993
2  1915  31.8767 262.5743 0028570 131.1062 229.2050 14.58437040207235
Epoch: 2026-04-22T02:53Z
TLE epoch observation values (Epoch: 2026-04-22T02:53:12.643Z)
Latitude
0.00002°
Longitude
9.08538°
Altitude
710.091 km
Speed
7.496 km/s
True Right ascension
17h 30m 17s
True Declination
0° 00' 00"
Sunlit
Object was in full shadow at epoch
Visualization orbit readout
Latitude
Unknown
Longitude
Unknown
Altitude
Unknown
Speed
Unknown
Apparent Right ascension
Unknown
Apparent Declination
Unknown
Sunlit
N/A
Visualization observer readout
Local Sidereal Time
19:10:20
Azimuth
Unknown
Elevation
Unknown
Doppler factor
Unknown
Orbital elements
Apogee altitude
722.079 km
Perigee altitude
681.624 km
Semi-major axis
7,079.988 km
Eccentricity
0.00286
Inclination
31.8767°
RAAN
262.5743°
Arg. of periapsis
131.1062°
True anomaly
228.95773°
Mean anomaly
229.205°
Eccentric anomaly
229.08131°
Mean motion
3.6433 °/min
Orbital period
98.81 mins
BSTAR
0.000069246

Documentation

Showing up to 5 results
|